This demonstration page uses our WeatherBlox Daily Observations layout. Learn more.

Left ArrowRight Arrow

39.08367, -84.50855

Hourly Observations for December 6, 2017

Temp ( °F °C ) Dew Point ( °F °C ) Humidity (%) Winds ( mph kmh ) Pressure ( in mb ) Visibility ( mi km ) Precip ( " mm )
12:53 am 00:53 Clear 28 -2.2 22 -5.6 78 78 SSW 7 11 30.19 1023 10 16 N/A
1:53 am 01:53 Clear 27 -2.8 21 -6.1 78 78 SSW 6 9 30.19 1022 10 16 N/A
2:53 am 02:53 Clear 26 -3.3 21 -6.1 81 81 SSW 7 11 30.20 1023 10 16 N/A
3:53 am 03:53 Clear 26 -3.3 21 -6.1 81 81 SSW 6 9 30.19 1022 10 16 N/A
4:53 am 04:53 Clear 26 -3.3 21 -6.1 81 81 S 3 6 30.18 1022 10 16 N/A
5:53 am 05:53 Clear 28 -2.2 22 -5.6 78 78 S 6 9 30.17 1022 10 16 N/A
6:53 am 06:53 Clear 26 -3.3 21 -6.1 81 81 S 6 9 30.16 1021 10 16 N/A
7:53 am 07:53 Sunny 26 -3.3 21 -6.1 81 81 S 5 7 30.16 1021 10 16 N/A
8:53 am 08:53 Sunny 30 -1.1 24 -4.4 79 79 S 7 11 30.15 1021 10 16 N/A
9:53 am 09:53 Sunny 35 1.7 25 -3.9 67 67 SSW 9 15 30.14 1021 10 16 N/A
10:53 am 10:53 Sunny 40 4.4 24 -4.4 53 53 SW 14 22 30.14 1021 10 16 N/A
11:53 am 11:53 Sunny 44 6.7 24 -4.4 45 45 SSW 18 30 30.11 1020 10 16 N/A
12:53 pm 12:53 Sunny 45 7.2 24 -4.4 44 44 SW 20 31 30.10 1019 10 16 N/A
1:53 pm 13:53 Sunny 45 7.2 25 -3.9 46 46 SW 18 30 30.10 1019 10 16 N/A
2:53 pm 14:53 Sunny 45 7.2 26 -3.3 48 48 W 14 22 30.09 1019 10 16 N/A
3:53 pm 15:53 Mostly Sunny 45 7.2 26 -3.3 48 48 WSW 12 19 30.08 1019 10 16 N/A
4:53 pm 16:53 Mostly Sunny 42 5.6 26 -3.3 53 53 WSW 8 13 30.09 1019 10 16 N/A
5:53 pm 17:53 Clear 38 3.3 24 -4.4 57 57 SW 9 15 30.10 1019 10 16 N/A
6:53 pm 18:53 Clear 36 2.2 25 -3.9 64 64 SW 8 13 30.12 1020 10 16 N/A
7:53 pm 19:53 Clear 37 2.8 25 -3.9 62 62 WSW 8 13 30.14 1021 10 16 N/A
8:53 pm 20:53 Mostly Cloudy 38 3.3 25 -3.9 60 60 WSW 7 11 30.15 1021 10 16 N/A
9:53 pm 21:53 Cloudy 40 4.4 25 -3.9 55 55 WNW 8 13 30.16 1021 10 16 N/A
10:53 pm 22:53 Clear 37 2.8 25 -3.9 62 62 W 9 15 30.16 1021 10 16 N/A
11:53 pm 23:53 Clear 31 -0.6 24 -4.4 76 76 S 5 7 30.15 1021 10 16 N/A

Powered by AerisWeather